Garrison, ND

12:03 PM CST on February 23, 2017 (GMT -0600)
Garrison

Weather History for KN60 - March, 2014

Change the Weather History Date:

Wednesday, March 19, 2014

  Actual Average Record
Temperature  
Mean Temperature 34 °F -  
Max Temperature 45 °F - 65 °F (2012)
Min Temperature 24 °F - -5 °F (2013)
Degree Days  
Heating Degree Days 31    
Cooling Degree Days 0    
Moisture  
Dew Point 25 °F    
Average Humidity 75    
Maximum Humidity 92    
Minimum Humidity 45    
Precipitation  
Precipitation 0.01 in - 0.10 in (2002)
Month to date precipitation  
Year to date precipitation  
Sea Level Pressure  
Sea Level Pressure 29.99 in    
Wind  
Wind Speed 7 mph (NW)    
Max Wind Speed 21 mph    
Max Gust Speed 29 mph    
T = Trace of Precipitation, MM = Missing Value Source: NWS Daily Summary

Daily Weather History Graph

Daily Weather History Graph

Search for Another Location

Airport or City:

Trip Planner

Search our weather history database for the weather conditions in past years. The results will help you decide how hot, cold, wet, or windy it might be!

Date:

Astronomy

Mar. 19, 2014 Rise Set
Actual Time 7:50 AM CDT 7:57 PM CDT
Civil Twilight 7:19 AM CDT 8:27 PM CDT
Nautical Twilight 6:43 AM CDT 9:04 PM CDT
Astronomical Twilight 6:06 AM CDT 9:41 PM CDT
Moon 11:33 PM CDT (3/19) 9:04 AM CDT (3/19)
Length of Visible Light 13h 08m
Length of Day
12h 06m
Waning Gibbous, 91% of the Moon is Illuminated
Mar 19
Waning Gibbous
Mar 23
Last Quarter
Mar 30
New
Apr 7
First Quarter
Apr 15
Full

Hourly Weather History & Observations

Time (CDT) Temp. Windchill Dew Point Humidity Pressure Visibility Wind Dir Wind Speed Gust Speed Precip Events Conditions
12:52 AM 26.1 °F 19.4 °F 21.9 °F 84% 30.03 in - WNW 5.8 mph - N/A   Unknown
1:52 AM 25.0 °F 15.5 °F 21.9 °F 88% 30.02 in - West 9.2 mph - N/A   Unknown
2:52 AM 24.1 °F 17.0 °F 21.0 °F 88% 30.02 in - West 5.8 mph - N/A   Unknown
3:52 AM 26.1 °F 19.4 °F 21.9 °F 84% 29.99 in - West 5.8 mph - N/A   Unknown
4:52 AM 28.0 °F 21.7 °F 24.1 °F 85% 29.99 in - NNW 5.8 mph - N/A   Unknown
5:52 AM 28.0 °F - 25.0 °F 88% 29.98 in - Calm Calm - N/A   Unknown
6:52 AM 28.0 °F - 26.1 °F 92% 29.98 in - Calm Calm - N/A   Unknown
7:52 AM 28.9 °F 25.2 °F 27.0 °F 92% 29.99 in - West 3.5 mph - N/A   Unknown
8:52 AM 28.0 °F 21.7 °F 26.1 °F 92% 30.00 in - WNW 5.8 mph - N/A   Unknown
9:52 AM 30.0 °F 21.1 °F 28.0 °F 92% 30.00 in - WNW 10.4 mph - N/A   Unknown
10:52 AM 34.0 °F 25.5 °F 30.0 °F 85% 30.00 in - NW 11.5 mph - 0.01 in   Unknown
11:52 AM 36.0 °F 28.0 °F 30.0 °F 79% 30.00 in - NW 11.5 mph - N/A   Unknown
12:52 PM 39.0 °F 30.3 °F 28.9 °F 67% 30.00 in - WNW 16.1 mph - N/A   Unknown
1:52 PM 39.9 °F 31.1 °F 28.9 °F 65% 29.99 in - NW 17.3 mph - N/A   Unknown
2:52 PM 43.0 °F 34.2 °F 27.0 °F 53% 29.97 in - NW 20.7 mph 28.8 mph N/A   Unknown
3:52 PM 39.9 °F 31.8 °F 26.1 °F 58% 29.98 in - WNW 15.0 mph - N/A   Unknown
4:52 PM 43.0 °F 35.4 °F 25.0 °F 49% 29.95 in - NW 16.1 mph - N/A   Unknown
5:52 PM 44.1 °F 37.7 °F 24.1 °F 45% 29.95 in - NNW 12.7 mph - N/A   Unknown
6:52 PM 42.1 °F 36.6 °F 23.0 °F 47% 29.96 in - NW 9.2 mph - N/A   Unknown
7:52 PM 35.1 °F 31.0 °F 24.1 °F 64% 29.97 in - North 4.6 mph - N/A   Unknown
8:52 PM 32.0 °F 27.5 °F 23.0 °F 69% 29.98 in - NE 4.6 mph - N/A   Unknown
9:52 PM 30.0 °F - 23.0 °F 75% 29.98 in - Calm Calm - N/A   Unknown
10:52 PM 30.0 °F 26.5 °F 23.0 °F 75% 29.97 in - ENE 3.5 mph - N/A   Unknown
11:52 PM 28.9 °F - 21.9 °F 75% 29.96 in - Calm Calm - N/A   Unknown